Location: *
(43.6428°N, 11.5461°E)
Time: 18:39:23
(UTC+00:00)

Falcon 9 debris - Pass Details

Date: 21 October 2019
Orbit: 430 x 438 km, 53.0° (Epoch: 13 November)

Event Time Altitude Azimuth Distance (km) Brightness Sun altitude
Rises 17:00:41 0° 307° (NW) 2,406 ? -7.8°
Reaches altitude 10° 17:02:56 10° 317° (NW) 1,538 ? -8.2°
Maximum altitude 17:06:06 33° 24° (NNE) 746 ? -8.8°
Enters shadow 17:08:47 13° 87° (E) 1,358 ? -9.3°
